Powrót do katalogu

INTELSAT 3-F3

AktywnyŁącznośćMEO
NORAD 3674·PAYLOAD· XX

Wystrzelony Feb 6, 1969 z Cape Canaveral Space Force Station

Loading…

Następne Przeloty (najbliższe 24 godziny)

TLE

ŚwieżeSource: Space-Track

Epoka: Sep 13, 2026, 15:55 UTC

1 03674U 69011A   26256.66329421 -.00000199  00000-0  00000-0 0  9991
2 03674   9.2755 302.9946 0179379   2.3477   1.5143  0.84931337 67456

Śledź INTELSAT 3-F3 w czasie rzeczywistym z AllMySat

Download on the App Store